Location: Antin
(43.3330°N, 0.2804°E)
Time: 03:37:25
(UTC+00:00)

Cosmos 1544 Rocket - Pass Details

Date: 16 October 2021
Orbit: 603 x 632 km, 82.5° (Epoch: 02 December)

Event Time Altitude Azimuth Distance (km) Brightness Sun altitude
Rises 18:19:49 0° 160° (SSE) 2,903 6.8 -12.7°
Reaches altitude 10° 18:22:15 10° 149° (SSE) 2,004 5.9 -13.2°
Maximum altitude 18:26:04 29° 89° (E) 1,170 4.4 -13.8°
Drops below altitude 10° 18:29:55 10° 30° (NNE) 2,022 5.9 -14.6°
Sets 18:32:23 0° 19° (NNE) 2,935 6.8 -15.0°
